Regional Weather Roundup
Issued by NWS Huntsville, AL

Home | Current Version | Previous Version | Text Only | Print | Product List | Glossary On
Versions: 1 2 3 4 5 6 7 8 9 10 11 12 13 14 15 16 17 18 19 20 21 22 23 24 25 26 27 28 29 30 31 32 33 34 35 36 37 38 39 40 41 42 43 44 45 46 47 48 49 50
000
ASUS44 KHUN 312210
RWRHUN

WEATHER ROUNDUP FOR THE TENNESSEE VALLEY
NATIONAL WEATHER SERVICE HUNTSVILLE AL
500 PM CDT FRI JUL 31 2015

ALZ001>004-312300-
NORTHWEST ALABAMA

CITY           SKY/WX    TMP DP  RH WIND       PRES   REMARKS
BANKHEAD NF      N/A     90  56  31 N3          N/A
SHOALS AIRPORT SUNNY     91  60  35 N7        30.00F HX  90
SHOALS TVA RES   N/A     90 N/A N/A MISG        N/A
$$

ALZ005>007-016-312300-
NORTH CENTRAL ALABAMA

CITY           SKY/WX    TMP DP  RH WIND       PRES   REMARKS
DECATUR AP     SUNNY     89  58  34 N14       29.98F
HUNTSVILLE AP  SUNNY     92  55  28 N15       29.97F HX  90
HUN NWS/UAH      N/A     90  49  24 N10         N/A
MERIDIANVILLE  SUNNY     88  41  19 N10G18    29.99S
REDSTONE ARSN  SUNNY     90  55  30 N14G21    29.97F
VINEMONT AP    FAIR      87  57  36 N9        30.01S
$$

ALZ008>010-312300-
NORTHEAST ALABAMA

CITY           SKY/WX    TMP DP  RH WIND       PRES   REMARKS
ALBERTVILLE    SUNNY     88  64  45 N10       29.97S
FORT PAYNE     SUNNY     88  48  25 N14G20    29.96S
SCOTTSBORO AP  SUNNY     90  59  35 N8        29.97S
SCOTTSBORO HCN   N/A     88 N/A N/A MISG        N/A
VALLEY HEAD      N/A     86 N/A N/A MISG        N/A
$$

TNZ076-096-097-312300-
SOUTHEASTERN MIDDLE TENNESSEE

CITY           SKY/WX    TMP DP  RH WIND       PRES   REMARKS
TULLAHOMA      SUNNY     84  54  34 N13       30.03S
WINCHESTER     SUNNY     86  57  37 N15       30.01S
$$

...SURROUNDING SITES...

CITY           SKY/WX    TMP DP  RH WIND       PRES   REMARKS
ATLANTA        PTSUNNY   92  69  47 N8        29.92S HX  97
ANNISTON       SUNNY     92  60  34 N10G18    29.92F HX  91
BIRMINGHAM     SUNNY     91  54  28 N9G20     29.96F
CHATTANOOGA    MOSUNNY   87  59  38 N10       29.98S
DALTON         SUNNY     84  63  48 N10G20    29.96S
GADSDEN        SUNNY     91  54  27 N13G18    29.93S
GOLDEN TRNGL   SUNNY     93  57  29 N14G23    29.96F HX  92
HALEYVILLE     FAIR      89  59  36 N10       30.02F
JACKSON TN     SUNNY     93  62  35 N13       30.03F HX  93
MEMPHIS        MOSUNNY   92  60  34 NE8       30.03F HX  91
NASHVILLE      MOSUNNY   89  60  37 N10       30.02F
ROME           SUNNY     90  59  35 N16       29.93F
SAVANNAH       SUNNY     90  32  12 N12       30.02F
TUPELO         SUNNY     91  62  37 NE17G24   29.99F HX  91
TUSCALOOSA     SUNNY     93  53  25 NE16      29.93F HX  90
$$

...GULF COAST WEATHER...

CITY           SKY/WX    TMP DP  RH WIND       PRES   REMARKS
GULFPORT       MOSUNNY   94  75  54 NE7       29.85F HX 105
PASCAGOULA     MOSUNNY   92  77  61 N6        29.85F HX 105
MOBILE         MOSUNNY   92  76  59 N12       29.87F HX 104
GULF SHORES    MOCLDY    82  77  84 W6        29.85F HX  90
PENSACOLA      PTSUNNY   88  77  69 SW9       29.85F THUNDER HX 100
DESTIN         PTSUNNY   89  78  70 CALM      29.86S HX 103
PANAMA CITY    PTSUNNY   86  78  76 S8        29.86F HX  99
APPALACHICOLA  CLOUDY    87  78  74 SW6       29.86F HX 100
$$




USA.gov is the U.S. government's official web portal to all federal, state and local government web resources and services.